Погода в Хмелинце

Россия / Липецкая область     52°28′00″N   38°53′29″E
темп.,
°C
ветер,
м/с
пор.,
м/с
влажн.,
%
обл.,
%
осадки,
мм/ч
давл.,
гПа
погр.,
м
16 мая, вс
вс1600:00+14юз22820 0.0 101311
03:00+13ююз22855 0.0 101410
06:00+15ююв22841 0.0 101347
09:00+20ю236416 0.0 1014408
12:00+23ююз34485 0.0 10141653
15:00+24юз134399 0.0 10141708
18:00+23с225883 0.0 101343
21:00+17ссв3468100 0.0 101351
17 мая, пн
пн1700:00+16всв399168 3.6 1013186
03:00+15в479494 3.6 1012119
06:00+15в498651 0.0 1012170
09:00+21вюв5867100 0.0 1012358
12:00+25вюв610489 0.0 1011947
15:00+26вюв712515 0.0 10101637
18:00+23вюв7136396 0.0 1010598
21:00+20вюв6166880 0.0 1010405
18 мая, вт
вт1800:00+18юв6155911 0.0 1009379
03:00+15вюв512679 0.0 1009241
06:00+14вюв41175100 0.0 1009225
09:00+20юв61157100 0.0 1009463
12:00+25юв684376 0.0 1009968
15:00+25вюв61053100 0.0 10071230
18:00+23юв5116294 0.0 1007394
21:00+19вюв488035 0.0 1006129
19 мая, ср
ср1900:00+17вюв512775 0.0 1005256
03:00+15юв597878 0.0 1006209
06:00+16ююв489395 0.1 1006296
09:00+18ююв477789 0.1 1006621
12:00+16юв61087100 0.7 1006729
15:00+19ю7106892 1.1 10061496
18:00+18ююв587264 0.7 10061169
21:00+14ююв3484100 1.0 100663
20 мая, чт
чт2000:00+12ююв39945 0.0 1006216
03:00+10ю4109746 0.0 1007361
06:00+11ююв5994100 0.2 1006685
09:00+13ююз7108498 1.2 1007925
12:00+11ююз61189100 0.6 1009803
15:00+11юз6118896 0.8 1011918
18:00+13юз51180100 0.3 10121025
21:00+12ююз398984 0.4 1013249